Regional Weather Roundup
Issued by NWS

Home | Current Version | Previous Version | Text Only | Print | Product List | Glossary On
Versions: 1 2 3 4 5 6 7 8 9 10 11 12 13 14 15 16 17 18 19 20 21 22 23 24 25 26 27 28 29 30 31 32 33 34 35 36 37 38 39 40 41 42 43 44 45 46 47 48 49 50
000
ASUS46 KLOX 301012
RWRCA

SOUTHERN CALIFORNIA WEATHER ROUNDUP
NATIONAL WEATHER SERVICE OXNARD CALIFORNIA
300 AM PDT SAT AUG 30 2014

NOTE: "FAIR" INDICATES FEW OR NO CLOUDS BELOW 12,000 FEET WITH NO
SIGNIFICANT WEATHER AND/OR OBSTRUCTIONS TO VISIBILITY.

  -  STATIONS PRECEEDED BY AN ASTERISK (*) ARE NOT NWS OR FAA
     STATIONS AND ARE NOT SUBJECT TO NWS AND FAA QUALITY CONTROL.

CAZ041-042-087-301100-
LA AND ORANGE COUNTY COASTAL AREAS


CITY           SKY/WX    TMP DP  RH WIND       PRES   REMARKS
L.A. DOWNTOWN  FAIR      67  62  84 CALM      29.81S
L.A. AIRPORT   FAIR      68  64  87 CALM      29.81F
LONG BEACH     FAIR      68  62  81 CALM      29.81S

CITY           SKY/WX    TMP DP  RH WIND       PRES   REMARKS
AVALON           N/A     61 N/A N/A MISG        N/A
FULLERTON      FAIR      69  62  78 CALM      29.80F
*GETTY CENTER    N/A     64  55  72 NE3         N/A
HAWTHORNE      FAIR      68  65  90 CALM      29.81F
*LEO CARRILLO    N/A     63  57  81 N3          N/A
*LOS ALAMITOS  FAIR      65  62  91 S1        29.81F
*REDONDO BEACH   N/A     64  61  88 CALM      29.80S
SANTA ANA      FAIR      70  64  81 CALM      29.81S
STA MONICA APT MOCLDY    67  63  87 CALM      29.81F
*UCLA            N/A     63  57  82 CALM      29.79S

$$

CAZ547-548-048-301100-
LA COUNTY VALLEYS AND INLAND EMPIRE


CITY           SKY/WX    TMP DP  RH WIND       PRES   REMARKS
BURBANK        FAIR      68  60  75 CALM      29.82S
VAN NUYS       FAIR      70  59  68 CALM      29.82S

CITY           SKY/WX    TMP DP  RH WIND       PRES   REMARKS
CORONA AIRPORT FAIR      62  56  81 CALM      29.82F
*CHATSWORTH      N/A     68  54  60 CALM      29.77S
CHINO          FAIR      64  59  83 CALM      29.83F
MARCH AFB      FAIR      64  51  62 CALM      29.85S
ONTARIO        FAIR      70  58  65 CALM      29.82F
*PASADENA        N/A    N/A N/A N/A CALM        N/A
RIVERSIDE      FAIR      68  57  68 CALM      29.83S
SAN BERNARDINO NOT AVBL
*SAN RAFAEL HI   N/A     70  55  59 CALM        N/A
*SAUGUS          N/A     70  45  40 E3          N/A
*WHITEMAN AP   NOT AVBL
*WOODLAND HILL   N/A     64  55  72 SE1         N/A

$$

CAZ054-055-301100-
LA AND SAN BERNARDINO COUNTY MOUNTAINS


CITY           SKY/WX    TMP DP  RH WIND       PRES   REMARKS
*BIG BEAR AIRP FAIR      45  28  53 CALM      30.22S
*CHILAO          N/A     73  21  14 CALM        N/A
MT WILSON NWS    N/A     70  23  17 MISG        N/A
SANDBERG       FAIR      71  37  28 MISG      30.07R
*WARM SPRINGS    N/A     73  33  23 W13         N/A

$$

CAZ028-029-059-060-099-301100-
ANTELOPE VALLEY AND SURROUNDING AREAS


CITY           SKY/WX    TMP DP  RH WIND       PRES   REMARKS
LANCASTER      FAIR      76  39  26 W13       29.89S
PALMDALE       FAIR      75  35  23 SW5       29.91S
*POPPY PARK      N/A     78  39  24 W17G33      N/A

CITY           SKY/WX    TMP DP  RH WIND       PRES   REMARKS
29 PALMS       FAIR      81  33  17 W12       29.90F
BARSTOW/DAGGET FAIR      79  32  18 W10       29.85S
BISHOP         FAIR      62  30  29 N5        29.97S
CHINA LAKE     FAIR      74  38  27 S7        29.81F
EDWARDS AFB    FAIR      74  37  25 SW10      29.86S
MOJAVE         FAIR      81  32  17 W20G25    29.89F
NEEDLES        FAIR      86  34  15 NW6       29.73S
VICTORVILLE    FAIR      73  27  17 S3        29.93S

$$

CAZ039-040-301100-
VENTURA AND SANTA BARBARA COUNTY COAST


CITY           SKY/WX    TMP DP  RH WIND       PRES   REMARKS
CAMARILLO      FAIR      66  59  78 CALM      29.80S
NWS OXNARD       N/A     62  58  87 CALM      29.80S
OXNARD AIRPORT FAIR      63  60  90 CALM      29.80S
*POINT MUGU    FAIR      63  58  83 CALM      29.80F
SBA APT/GOLETA FAIR      61  58  90 CALM      29.78F
*SANTA BARBARA   N/A     67  60  79 CALM      29.86F
*VENTURA         N/A     62  57  85 CALM      29.84S

$$

CAZ044-045-301100-
VENTURA COUNTY VALLEYS


CITY           SKY/WX    TMP DP  RH WIND       PRES   REMARKS
*SIMI VALLEY     N/A     64  52  64 CALM      29.75R
*OJAI            N/A     59  53  80 CALM      29.73F
*FILLMORE        N/A     59  54  83 CALM      29.70F

$$

CAZ053-301100-
VENTURA COUNTY MOUNTAINS


CITY           SKY/WX    TMP DP  RH WIND       PRES   REMARKS
*LOCKWOOD VLY    N/A     50  30  46 MISG        N/A
*ROSE VALLEY     N/A     52  36  54 MISG        N/A

$$

CAZ034-035-036-301100-
CENTRAL COAST AND SANTA YNEZ VALLEY


CITY           SKY/WX    TMP DP  RH WIND       PRES   REMARKS
SAN LUIS OBISP CLOUDY    59  59 100 CALM      29.85F FOG
SANTA MARIA    FOG       61  58  90 CALM      29.86F VSB 1/4

CITY           SKY/WX    TMP DP  RH WIND       PRES   REMARKS
*CAL POLY SLO    N/A     59  59 100 SE1         N/A
*LOMPOC        CLOUDY    61  55  82 CALM      29.86F
*PISMO BEACH     N/A     59  58  94 CALM      29.86F
*SANTA YNEZ    CLOUDY    57  55  94 CALM      29.86F FOG

$$

CAZ037-038-051-301100-
SAN LUIS OBISPO COUNTY INTERIOR AND CUYAMA VALLEY


CITY           SKY/WX    TMP DP  RH WIND       PRES   REMARKS
*CUYAMA          N/A     69  43  37 SE5       29.83S
PASO ROBLES    FAIR      64  54  69 NW6       29.89F

$$

CAZ032-033-061-301100-
SOUTHERN DESERTS


CITY           SKY/WX    TMP DP  RH WIND       PRES   REMARKS
BLYTHE         FAIR      81  43  26 CALM      29.69S
IMPERIAL       FAIR      85  47  26 SW5       29.66S
PALM SPRINGS   FAIR      86  47  25 CALM      29.72S
THERMAL        FAIR      90  43  19 NW10      29.64S

$$

ELSEWHERE ACROSS THE WESTERN UNITED STATES AND MEXICO


CITY           SKY/WX    TMP DP  RH WIND       PRES   REMARKS
DENVER, CO     CLEAR     53  45  74 S3        30.10F
GRAND CANYON,    N/A    N/A N/A N/A MISG        N/A
HONOLULU, HI   PTCLDY    79  66  65 NW3       29.93F
KAHULUI, MAUI  CLEAR     75  68  78 N5        29.93F
LAKE TAHOE, CA FAIR      65  29  25 VRB3      30.15
LAS VEGAS, NV  FAIR      84  31  14 SW7       29.77S
MAMMOTH LAKES, FAIR      61  23  23 CALM      30.21F
MEXICO CITY, M MOCLDY    63  52  67 N5        30.25F
PHOENIX, AZ    FAIR      87  48  25 SE7       29.76R
PORTLAND, OR   CLOUDY    65  57  75 N3        29.95F
RENO, NV       MOCLDY    70  36  28 CALM      30.03S
SALT LAKE CITY MOCLDY    73  43  33 SE13      29.90S
SAN DIEGO, CA  FAIR      68  63  84 NW3       29.82F
SAN FRANCISCO, FAIR      64  61  90 NW6       29.89F
SAN JOSE, CA   FAIR      64  59  83 CALM      29.90S
SEATTLE, WA    MOCLDY    61  55  81 S7        29.95S
TIJUANA, MEX   MOCLDY    66  61  82 CALM      29.84F HAZE

$$

STATION/POSITION TIME  TEMP    WIND        PRES    VSBY  WAVE
                       AIR SEA DIR/SP/G                  HT/PER
                 (UTC) (F)     (DEG/KT/KT) (MB)    (MI)  (FT/S)
POINT ARGUELLO B NOT AVBL
WEST SANTA BARBA 1000   59 61  320/ 23/ 29 1008.0F         7/ 6
POINT CONCEPTION NOT AVBL
EAST SANTA BARBA 0900   66                   N/A
SANTA MONICA BAY 1000   67 71   10/  4/  4 1008.9F         4/ 9


USA.gov is the U.S. government's official web portal to all federal, state and local government web resources and services.